Temperature
20 20 20 20 19 19 19 19 19 18 18 18 18 18 17 17 17 17 17 17 16 16 16 16 16 17 17 17 17 17 17 17 17 17 17 17 16 16 17 16 16 16 16
20 20 20 19 19 19 19 19 18 18 18 18 18 18 17 17 17 17 17 17 16 16 16 16 16 16 16 16 16 16 16 16 16 16 16 16 16 16 16 16 16 16 16
20 20 20 19 19 19 19 19 18 18 18 18 18 18 17 17 17 17 17 17 16 16 16 16 16 16 16 16 16 16 16 16 16 16 16 16 16 16 16 16 16 16 15
20 20 19 19 19 19 19 18 18 18 18 17 17 17 17 17 17 17 17 16 16 16 16 16 16 16 16 16 16 16 16 16 16 16 16 16 16 16 15 15 15 15 15
20 20 19 19 19 19 18 18 18 18 17 17 17 17 17 17 17 17 16 16 16 16 16 16 16 15 16 16 15 15 15 15 15 15 15 15 15 15 15 15 15 15 15
20 20 19 19 19 18 18 18 18 17 17 17 17 17 17 16 17 16 16 16 16 16 15 16 15 15 15 15 15 15 15 15 15 15 15 14 14 14 14 14 14 14 14
20 19 19 19 18 18 18 18 17 17 17 17 17 17 17 17 16 16 16 16 16 15 15 15 15 15 15 15 15 15 15 15 14 14 14 14 14 14 14 14 14 14 14
19 19 19 18 18 18 18 18 17 17 17 17 17 17 16 16 16 16 16 15 15 15 15 15 15 15 15 15 15 15 15 14 14 14 14 14 14 14 14 14 14 14 14
19 19 18 18 18 18 18 17 17 17 17 16 16 16 16 16 16 16 16 15 15 15 15 15 15 15 14 14 14 14 14 14 14 14 14 14 14 14 14 14 14 13 13
19 18 18 18 18 18 17 17 17 17 16 16 16 16 16 16 16 16 15 15 15 14 14 14 14 14 14 14 14 14 14 14 14 13 14 14 14 14 13 13 13 13 13
18 18 18 18 18 17 17 17 17 16 16 16 15 16 16 16 15 15 15 15 14 14 14 14 14 14 14 14 14 14 13 13 13 13 13 13 13 13 13 13 13 13 13
18 18 17 17 17 17 17 17 16 16 16 15 15 15 15 15 15 15 15 15 14 14 14 14 14 14 14 14 14 13 13 13 13 13 13 13 13 13 13 13 13 13 13
17 17 17 17 17 17 17 16 16 16 15 15 15 15 15 15 15 15 15 14 14 14 14 14 14 14 14 13 13 13 13 13 13 12 12 12 12 12 12 12 12 12 13
17 17 17 17 17 17 16 16 16 15 15 15 15 15 15 14 14 14 14 14 14 14 13 14 14 14 13 13 13 13 13 13 13 12 12 12 12 12 12 12 12 12 12
17 17 16 16 17 16 16 16 16 16 15 15 15 15 15 14 14 14 14 14 13 13 13 13 13 13 13 13 13 13 13 13 12 12 12 12 12 12 12 12 12 12 12
17 16 16 16 16 16 16 16 16 15 15 15 15 15 15 14 14 14 14 13 13 13 13 13 13 13 13 13 13 13 13 12 12 12 12 12 12 12 12 11 11 11 11
17 16 16 16 16 16 16 16 16 15 15 15 15 15 14 14 14 14 13 13 13 13 13 13 13 12 12 12 12 12 12 12 12 12 12 11 11 11 11 11 11 11 11
16 16 16 16 16 16 16 16 16 16 15 15 15 14 14 14 14 13 13 13 13 13 13 12 12 12 12 12 12 12 12 12 11 11 11 11 11 11 11 11 11 11 11
16 16 16 16 16 16 16 16 15 15 15 15 14 14 14 14 13 13 13 13 12 12 12 12 12 12 12 12 11 11 11 11 11 11 11 11 11 11 11 11 11 10 10
16 16 15 15 15 15 15 15 15 15 15 14 14 14 14 13 13 13 13 12 12 12 12 12 12 12 11 11 11 11 11 10 10 10 10 10 10 10 10 10 10 10 10
15 15 15 15 15 15 15 15 15 15 14 14 14 14 14 13 13 13 13 12 12 12 12 12 11 11 11 11 11 10 10 10 10 10 10 10 10 10 10 10 10 10 10
15 15 15 15 15 15 15 15 14 14 14 14 14 14 13 13 13 13 13 12 12 12 12 11 11 11 11 10 10 10 10 10 10 9 9 9 9 9 9 9 9 9 9
14 14 14 14 14 14 14 14 14 14 14 14 13 13 13 13 13 12 12 12 12 12 11 11 11 10 10 10 10 10 10 10 9 9 9 9 9 9 9 9 9 9 9
14 14 14 14 14 14 14 14 14 14 14 13 13 13 13 13 12 12 12 12 11 11 11 11 10 10 10 10 9 9 9 9 9 9 9 9 9 9 9 9 9 9 9
13 14 14 13 13 13 14 13 13 13 13 13 13 13 12 12 12 12 12 11 11 11 11 10 10 10 10 9 9 9 9 9 9 9 9 9 9 9 9 8 8 8 9
13 13 13 13 13 13 13 13 13 13 13 13 12 12 12 12 12 12 11 11 11 10 10 10 10 9 9 9 9 9 9 9 9 9 9 9 8 8 8 8 8 8 8
Wind_Speed
10 8 7 7 6 5 4 4 3 3 3 3 3 3 3 2 2 1 1 1 1 2 3 2 3 3 3 4 3 2 2 2 3 2 2 1 1 2 3 5 6 8 9
9 8 6 5 5 5 5 4 4 4 4 3 3 3 3 3 2 2 2 2 2 2 3 3 3 4 3 3 4 4 3 3 2 3 2 2 3 3 4 4 4 6 7
9 9 7 7 7 6 5 5 4 4 4 4 3 3 3 2 2 2 2 3 3 3 2 2 3 4 4 3 4 4 4 4 2 3 3 2 2 2 3 4 4 3 5
9 9 8 7 6 6 5 5 4 4 4 4 4 3 4 3 3 3 3 3 3 3 3 2 2 2 3 4 4 3 4 4 4 3 3 2 2 2 2 2 3 2 3
8 8 8 7 6 5 5 5 4 4 5 4 4 3 4 4 3 2 3 4 3 3 3 3 3 1 1 3 4 3 4 4 4 4 3 2 2 2 2 3 3 3 2
7 7 7 6 6 5 5 5 4 4 4 4 4 5 5 4 4 3 3 3 3 3 3 3 3 3 3 4 4 5 5 5 4 4 4 3 3 3 3 4 3 3 3
6 5 6 6 6 5 6 5 5 5 5 5 5 4 4 3 3 3 3 4 4 3 3 3 4 2 1 2 4 6 5 6 5 4 4 4 3 2 3 5 4 4 4
6 6 6 6 5 5 5 5 5 4 4 4 4 4 4 4 4 4 4 5 4 3 3 3 2 2 2 2 3 3 3 3 4 4 4 4 3 2 3 5 5 5 4
6 6 6 5 5 5 5 4 4 4 4 4 4 4 4 3 4 5 4 4 4 4 4 3 3 1 2 2 3 3 3 3 4 3 4 4 5 5 4 3 4 4 4
5 5 5 5 5 5 5 4 4 4 4 4 3 3 4 4 5 5 4 3 3 3 4 3 1 1 1 1 2 3 3 4 4 4 3 5 5 6 6 4 4 4 3
4 4 5 4 5 5 5 4 4 4 4 3 3 3 3 4 5 5 5 3 3 3 3 2 1 1 1 3 4 4 5 4 4 4 4 4 4 3 3 3 3 3 3
4 4 5 5 5 5 5 4 4 4 3 4 4 3 3 4 4 4 5 5 4 4 3 2 1 2 3 5 5 5 5 5 4 4 3 3 3 2 2 2 3 3 3
5 5 5 5 4 5 5 5 5 4 4 4 4 4 3 3 3 4 5 6 6 4 3 3 3 5 6 5 7 7 5 4 4 3 3 3 2 2 2 2 2 3 4
5 4 5 5 5 5 4 5 4 4 3 3 3 3 2 2 2 2 3 4 5 4 4 4 5 7 6 6 5 5 5 4 3 3 3 3 2 2 2 2 2 2 2
5 4 5 5 5 5 4 3 4 3 3 4 3 2 2 2 3 3 3 3 3 3 2 3 3 3 3 3 3 3 3 2 2 3 3 2 2 2 2 2 2 2 2
5 5 4 4 4 5 5 3 2 2 4 4 2 1 1 2 4 4 3 4 3 3 2 3 3 3 3 2 2 2 2 2 2 2 3 3 3 3 2 2 2 2 2
4 4 4 4 4 4 4 4 3 2 3 2 3 3 3 3 3 3 2 2 3 4 3 4 3 3 2 2 2 2 2 1 1 2 3 3 3 3 3 2 2 2 2
4 5 4 3 3 3 3 4 3 4 3 3 3 5 6 5 5 4 3 2 1 3 4 3 3 2 2 2 2 2 2 1 2 2 3 2 2 3 3 3 2 2 2
4 4 3 2 2 2 2 2 2 2 2 2 3 3 5 4 3 3 4 3 3 3 4 3 2 2 2 1 1 1 2 2 2 2 2 2 2 3 3 3 3 2 2
4 5 4 3 3 3 3 3 2 2 2 2 2 2 4 4 3 3 4 4 4 3 2 2 2 2 2 2 1 1 2 2 2 1 2 2 2 3 3 4 3 3 2
4 4 5 4 3 3 3 3 2 2 2 3 3 4 6 4 4 4 4 4 3 2 2 2 2 2 2 1 1 1 2 2 1 1 2 2 3 3 3 3 3 2 3
4 4 4 4 3 3 3 3 3 3 3 3 2 4 7 5 3 3 3 3 3 2 2 1 2 2 1 1 1 1 2 2 2 2 2 3 3 3 3 3 3 3 3
4 4 3 3 3 3 4 4 3 3 3 3 2 3 5 4 3 2 1 1 1 1 1 1 2 2 1 1 1 1 1 2 3 3 3 3 4 4 4 4 4 4 4
4 4 4 3 3 4 4 4 4 4 4 3 3 3 3 3 3 2 2 2 1 1 1 1 1 1 1 2 1 1 2 2 3 3 4 4 5 4 4 4 4 4 4
5 4 4 4 4 4 4 4 4 4 4 3 3 3 2 2 2 2 1 1 1 1 1 1 0 0 1 2 2 2 3 3 4 5 4 4 4 4 4 4 4 4 4
4 4 4 4 4 4 4 4 4 4 3 3 3 3 2 2 2 2 1 1 1 1 1 0 1 1 1 1 2 3 3 3 4 5 4 4 4 4 4 4 5 5 5
Wind_Direction
182 180 178 177 185 187 185 179 176 177 177 171 165 166 169 183 176 186 243 236 254 283 293 294 299 299 306 313 310 299 281 266 267 287 304 307 228 252 225 231 223 207 211
175 170 172 170 175 182 182 177 180 181 183 178 175 178 188 187 182 198 239 262 259 259 279 301 303 295 293 298 303 305 297 286 274 279 279 278 255 236 237 241 237 233 214
172 170 171 182 183 183 184 179 180 182 187 187 181 187 199 194 199 221 229 248 266 267 267 282 294 301 301 296 292 300 298 297 284 273 268 267 269 260 253 263 258 250 251
168 172 174 184 186 184 183 181 182 186 193 193 190 198 201 193 212 232 239 245 252 264 274 276 279 286 293 294 291 300 299 296 289 285 281 274 287 297 274 268 274 259 269
165 172 179 181 180 179 181 180 183 191 196 188 191 205 211 203 213 214 238 244 251 258 260 261 251 238 254 283 293 307 306 299 292 288 282 287 289 308 294 280 275 279 276
161 170 170 170 173 179 183 177 184 192 191 188 199 206 217 218 191 188 224 254 251 254 256 259 247 218 233 251 270 276 273 279 294 295 292 293 290 291 292 287 283 282 275
157 164 163 167 173 178 190 182 191 195 195 198 202 196 200 209 199 196 217 249 248 251 258 262 269 264 239 269 264 271 278 270 257 268 283 290 292 293 283 283 280 273 269
164 166 168 171 176 180 179 183 192 194 198 202 203 199 202 209 192 198 215 239 244 247 251 253 254 269 280 302 287 280 272 281 267 254 264 277 286 284 269 268 270 267 260
172 172 173 174 181 182 179 185 188 189 194 200 196 196 198 203 189 189 199 239 243 248 246 247 245 222 301 315 284 287 293 297 295 280 272 278 276 274 272 287 284 279 276
178 177 174 174 181 183 181 181 188 190 197 204 193 193 194 190 181 179 192 239 249 248 243 218 165 149 268 299 282 280 282 291 300 297 279 271 263 260 250 240 265 277 281
175 175 174 179 185 175 171 182 186 193 197 200 205 204 188 182 178 181 188 232 262 259 258 247 194 173 257 262 264 263 266 281 281 274 264 260 258 255 244 228 240 256 270
169 175 174 181 192 179 172 184 188 188 196 199 210 213 194 179 173 188 203 228 259 274 275 272 239 245 264 263 259 256 267 278 271 275 277 281 281 281 276 261 245 246 254
170 174 174 183 183 167 174 182 188 190 206 211 212 224 216 184 175 186 211 236 250 260 280 291 282 267 263 252 240 247 255 256 259 268 274 276 280 278 277 267 248 238 249
170 175 178 177 176 167 180 188 191 189 199 212 219 231 223 190 180 197 224 238 244 251 265 266 255 253 255 257 254 240 236 242 249 262 272 278 283 279 278 274 271 257 255
174 182 190 189 182 171 172 184 188 187 195 211 223 218 223 219 210 199 210 230 240 244 262 262 251 238 240 237 230 230 239 251 266 277 282 289 294 292 281 281 282 291 275
184 193 203 199 181 174 173 161 91 152 149 149 150 155 160 160 169 176 188 200 210 201 210 240 250 249 253 264 264 248 238 243 263 279 287 290 288 284 289 288 277 271 282
197 201 211 210 195 189 188 184 179 151 138 150 170 171 176 173 160 164 174 183 203 184 209 238 243 250 264 272 271 274 274 270 281 282 280 284 288 293 299 300 299 292 290
211 209 214 209 208 203 202 203 193 185 182 191 197 185 181 184 186 188 170 138 207 205 227 241 247 255 269 282 282 292 302 298 293 290 289 294 295 294 297 293 281 281 291
221 226 207 210 213 204 212 216 204 198 203 180 162 163 177 182 192 193 172 205 225 232 236 238 247 263 271 274 284 282 275 274 279 282 286 301 309 306 302 300 300 282 281
219 224 216 220 222 212 211 208 192 189 207 205 191 171 163 177 193 192 199 222 235 238 258 260 256 271 281 275 269 278 290 290 297 300 311 306 301 310 311 310 313 314 301
227 209 200 209 219 219 217 209 197 195 213 224 206 165 167 195 208 208 211 214 224 233 246 266 276 283 294 305 329 312 315 320 331 331 324 315 314 308 300 302 305 303 295
233 214 207 201 197 202 211 211 205 211 221 235 217 176 179 210 220 218 214 211 217 221 228 246 268 291 321 334 313 307 313 322 324 319 311 303 296 295 299 293 289 294 288
232 221 216 211 210 199 211 221 210 216 228 234 224 192 190 214 219 219 226 236 242 229 222 238 262 289 328 331 347 353 315 302 299 296 291 287 287 284 285 284 278 280 284
224 220 219 214 217 224 225 225 221 222 224 215 219 216 205 203 208 213 215 214 223 232 243 247 248 286 332 330 9 11 358 338 318 305 290 279 278 280 284 289 290 286 284
224 216 209 207 220 233 239 233 228 228 226 220 216 220 219 214 216 211 207 208 211 219 245 250 183 52 25 14 12 7 8 7 346 322 297 281 279 281 284 287 289 286 280
221 210 208 215 224 228 236 240 235 229 220 219 209 199 209 219 219 210 203 201 202 203 202 177 91 70 96 85 50 36 20 8 344 328 309 291 281 279 280 280 288 285 284
Height
1517 1519 1522 1523 1526 1527 1529 1530 1531 1532 1533 1533 1534 1534 1534 1534 1534 1535 1535 1536 1536 1537 1537 1537 1537 1537 1536 1536 1536 1536 1536 1536 1534 1533 1533 1532 1531 1531 1530 1529 1529 1529 1528
1514 1516 1519 1521 1523 1525 1526 1527 1528 1529 1530 1531 1531 1532 1532 1532 1532 1533 1533 1534 1534 1534 1534 1534 1534 1535 1534 1533 1533 1533 1533 1532 1532 1531 1530 1529 1529 1528 1527 1527 1526 1526 1525
1511 1514 1516 1519 1520 1522 1523 1525 1526 1527 1527 1528 1529 1529 1530 1530 1530 1531 1531 1531 1532 1532 1532 1532 1532 1531 1531 1530 1530 1530 1530 1529 1529 1528 1527 1527 1526 1525 1524 1524 1523 1522 1522
1509 1511 1513 1515 1517 1519 1521 1522 1523 1524 1525 1526 1526 1527 1527 1528 1528 1528 1529 1529 1529 1530 1530 1530 1529 1529 1528 1528 1528 1527 1527 1526 1526 1525 1524 1523 1523 1522 1521 1520 1519 1519 1519
1506 1508 1511 1513 1515 1517 1518 1519 1520 1521 1522 1523 1524 1524 1525 1525 1525 1525 1526 1527 1527 1527 1527 1527 1527 1526 1526 1526 1525 1524 1524 1523 1523 1522 1521 1521 1520 1519 1518 1517 1516 1516 1516
1505 1507 1509 1510 1512 1514 1515 1516 1517 1518 1519 1520 1521 1521 1522 1522 1523 1523 1523 1523 1524 1524 1523 1523 1524 1523 1523 1523 1522 1522 1521 1520 1520 1519 1519 1518 1517 1516 1515 1515 1513 1512 1512
1503 1505 1506 1508 1509 1511 1513 1513 1514 1515 1516 1516 1517 1518 1518 1519 1520 1520 1520 1520 1521 1521 1521 1521 1521 1521 1520 1520 1519 1518 1518 1517 1517 1517 1516 1515 1514 1513 1512 1511 1511 1510 1509
1500 1502 1504 1505 1507 1508 1509 1510 1511 1512 1513 1513 1514 1515 1515 1516 1516 1517 1517 1517 1517 1518 1518 1518 1518 1517 1517 1517 1516 1515 1514 1514 1513 1513 1512 1512 1511 1510 1509 1508 1507 1506 1505
1498 1499 1501 1502 1504 1505 1506 1507 1508 1509 1510 1510 1511 1511 1512 1512 1513 1513 1514 1514 1514 1515 1515 1515 1515 1514 1514 1513 1512 1511 1511 1510 1510 1510 1509 1508 1508 1507 1506 1505 1504 1503 1502
1495 1497 1498 1500 1501 1502 1503 1504 1505 1506 1507 1508 1508 1508 1508 1509 1510 1510 1510 1511 1511 1512 1512 1512 1512 1511 1511 1510 1509 1508 1507 1507 1507 1506 1506 1505 1504 1503 1503 1502 1501 1500 1499
1492 1494 1496 1497 1498 1500 1501 1502 1503 1504 1504 1505 1505 1505 1506 1506 1506 1507 1507 1508 1508 1509 1509 1509 1509 1508 1508 1507 1506 1506 1505 1505 1504 1503 1502 1502 1501 1500 1500 1499 1498 1498 1497
1490 1492 1493 1495 1496 1497 1498 1499 1501 1501 1502 1502 1503 1503 1503 1503 1503 1504 1504 1505 1505 1506 1506 1506 1505 1505 1505 1504 1504 1504 1503 1502 1502 1501 1500 1499 1498 1497 1496 1496 1495 1495 1494
1488 1489 1490 1492 1493 1494 1495 1497 1498 1499 1499 1500 1501 1500 1500 1500 1500 1501 1501 1502 1502 1502 1502 1503 1503 1502 1502 1501 1501 1501 1501 1500 1499 1499 1498 1497 1496 1495 1494 1493 1492 1492 1491
1485 1487 1488 1489 1491 1492 1493 1494 1495 1496 1496 1497 1498 1498 1498 1498 1497 1497 1497 1497 1498 1498 1499 1499 1499 1499 1499 1499 1498 1498 1498 1498 1498 1497 1496 1495 1494 1493 1492 1491 1490 1489 1488
1483 1485 1486 1488 1489 1490 1491 1492 1492 1493 1494 1495 1494 1495 1495 1495 1494 1494 1494 1494 1494 1495 1495 1496 1496 1496 1496 1496 1496 1496 1496 1495 1495 1494 1494 1493 1492 1491 1490 1489 1488 1487 1486
1481 1483 1485 1486 1487 1488 1489 1489 1490 1491 1491 1492 1492 1493 1492 1493 1492 1492 1492 1492 1492 1493 1493 1493 1493 1493 1494 1493 1493 1493 1493 1492 1492 1491 1491 1490 1489 1489 1488 1487 1486 1485 1484
1478 1480 1483 1484 1485 1485 1486 1487 1487 1488 1489 1489 1489 1489 1490 1490 1490 1490 1489 1489 1490 1490 1490 1490 1491 1491 1491 1491 1491 1490 1490 1489 1489 1488 1488 1487 1487 1486 1485 1485 1484 1483 1482
1476 1478 1479 1481 1482 1483 1484 1484 1484 1485 1485 1485 1486 1486 1487 1487 1487 1488 1488 1488 1488 1488 1488 1489 1489 1489 1489 1488 1488 1487 1487 1487 1486 1486 1485 1485 1484 1483 1483 1482 1481 1480 1479
1473 1475 1476 1478 1479 1480 1481 1481 1482 1482 1483 1483 1483 1483 1484 1484 1485 1485 1485 1485 1485 1486 1486 1486 1486 1486 1486 1486 1485 1485 1484 1484 1483 1483 1482 1481 1481 1481 1480 1479 1478 1477 1477
1470 1472 1473 1475 1476 1477 1478 1479 1479 1480 1480 1480 1481 1481 1481 1481 1482 1482 1483 1483 1483 1483 1483 1483 1483 1483 1483 1483 1482 1482 1481 1481 1480 1479 1479 1478 1478 1478 1477 1476 1476 1475 1474
1468 1468 1470 1471 1473 1474 1475 1476 1477 1477 1477 1478 1479 1479 1479 1479 1480 1480 1481 1481 1481 1481 1481 1481 1480 1480 1481 1480 1479 1479 1478 1478 1477 1476 1475 1475 1475 1474 1474 1474 1473 1472 1471
1465 1466 1466 1467 1469 1471 1472 1473 1473 1474 1474 1475 1475 1476 1477 1478 1478 1478 1479 1479 1479 1478 1478 1478 1478 1477 1477 1476 1476 1475 1475 1474 1474 1473 1472 1472 1471 1471 1471 1470 1469 1469 1468
1461 1462 1464 1465 1466 1467 1469 1470 1470 1471 1472 1473 1472 1473 1474 1475 1476 1476 1476 1476 1476 1475 1475 1475 1474 1474 1473 1473 1473 1472 1472 1471 1471 1470 1469 1468 1468 1467 1467 1467 1466 1466 1465
1457 1459 1460 1461 1463 1464 1465 1466 1467 1468 1469 1470 1470 1471 1472 1472 1473 1473 1473 1472 1473 1472 1472 1472 1471 1470 1470 1469 1469 1469 1468 1468 1467 1466 1466 1465 1464 1464 1463 1463 1463 1462 1462
1454 1455 1457 1458 1459 1460 1462 1463 1464 1465 1466 1467 1468 1468 1469 1469 1470 1470 1470 1470 1470 1469 1469 1468 1467 1467 1466 1465 1465 1465 1465 1464 1463 1462 1462 1461 1460 1460 1460 1459 1459 1458 1458
1451 1452 1453 1455 1456 1457 1458 1459 1461 1462 1463 1464 1465 1465 1466 1466 1467 1467 1466 1466 1466 1466 1466 1465 1464 1463 1462 1462 1461 1461 1460 1459 1459 1458 1457 1456 1456 1456 1456 1455 1455 1455 1454